Regional Weather Roundup
Issued by NWS

Home | Current Version | Previous Version | Graphics & Text | Print | Product List | Glossary On
Versions: 1 2 3 4 5 6 7 8 9 10 11 12 13 14 15 16 17 18 19 20 21 22 23 24 25 26 27 28 29 30 31 32 33 34 35 36 37 38 39 40 41 42 43 44 45 46 47 48 49 50
000
ASUS43 KLMK 072002
RWRKY
KENTUCKY REGIONAL WEATHER ROUNDUP
NATIONAL WEATHER SERVICE LOUISVILLE KY
300 PM EST WED DEC 07 2016

NOTE "FAIR" INDICATES FEW OR NO CLOUDS BELOW 12,000 FEET
WITH NO SIGNIFICANT WEATHER AND/OR OBSTRUCTIONS TO VISIBILITY.

KYZ001>023-026-027-061>063-070>075-072100-
WESTERN AND SOUTH CENTRAL KENTUCKY

CITY           SKY/WX    TMP DP  RH WIND       PRES   REMARKS
PADUCAH        MOSUNNY   47  21  35 N5        30.17F
HENDERSON      CLOUDY    45  25  45 W6        30.18R
OWENSBORO      MOSUNNY   42  22  44 N7        30.16F
HOPKINSVILLE   SUNNY     45  27  48 NW6       30.14S
BOWLING GREEN  SUNNY     48  26  42 NE6       30.14R
GLASGOW        NOT AVBL
$$

KYZ024-025-028>034-038-045-046-053-072100-
NORTH CENTRAL KENTUCKY

CITY           SKY/WX    TMP DP  RH WIND       PRES   REMARKS
LOUISVILLE/SDF CLOUDY    43  20  39 NW5       30.14F
LOUISVILLE/LOU CLOUDY    42  18  37 NW3       30.15S
FORT KNOX      CLOUDY    41  24  51 N7        30.12S
$$

KYZ035>037-039>044-047>052-055>060-089>105-072100-
NORTHEAST KENTUCKY

CITY           SKY/WX    TMP DP  RH WIND       PRES   REMARKS
LEXINGTON      CLOUDY    44  21  40 N7        30.11F
COVINGTON      CLOUDY    38  22  52 W8        30.12S WCI  32
FRANKFORT      CLOUDY    43  26  51 NW8       30.11F
$$

KYZ054-064>069-076>088-106>120-072100-
SOUTHEAST KENTUCKY

CITY           SKY/WX    TMP DP  RH WIND       PRES   REMARKS
JACKSON        MOSUNNY   47  25  42 VRB3      30.08F
LONDON         SUNNY     46  28  49 N9        30.08F
SOMERSET       PTSUNNY   46  30  53 NE5       30.11S
MIDDLESBORO    SUNNY     47  36  63 NE6       30.07S
MONTICELLO     CLEAR     46  31  55 N15       30.11F
$$





USA.gov is the U.S. government's official web portal to all federal, state and local government web resources and services.